Weather History for Charlotte, NC

Change the Weather History Date:

Friday, August 29, 2003

  Actual Average Record
Temperature  
Mean Temperature 81 °F 76 °F  
Max Temperature 90 °F 86 °F 100 °F (1948)
Min Temperature 73 °F 66 °F 54 °F (1968)
Degree Days  
Heating Degree Days 0 0  
Month to date heating degree days 0  
Since 1 June heating degree days 3  
Since 1 July heating degree days 0  
Cooling Degree Days 16 11  
Month to date cooling degree days 361  
Year to date cooling degree days 1255  
Since 1 June cooling degree days 1092  
Growing Degree Days 31 (Base 50)    
Moisture  
Dew Point 74 °F    
Average Humidity 85    
Maximum Humidity 100    
Minimum Humidity 61    
Precipitation  
Precipitation 0.00 in 0.13 in 1.42 in (1890)
Month to date precipitation 3.98  
Year to date precipitation 28.36  
Snow  
Snow 0.00 in 0.00 in 0.00 in ()
Month to date snowfall 0.0  
Since 1 June snowfall 0.0  
Since 1 July snowfall 0.0  
Snow Depth -    
Sea Level Pressure  
Sea Level Pressure 30.14 in    
Wind  
Wind Speed 4 mph (SSW)    
Max Wind Speed 7 mph    
Max Gust Speed -    
Visibility 9 miles    
Events      
T = Trace of Precipitation, MM = Missing Value Source: NWS Daily Summary

Daily Weather History Graph

Daily Weather History Graph

Search for Another Location

Airport:

Trip Planner

Search our weather history database for the weather conditions in past years. The results will help you decide how hot, cold, wet, or windy it might be!

Date:

Astronomy

Aug. 29, 2003 Rise Set
Actual Time 6:53 AM EDT 7:55 PM EDT
Civil Twilight 6:27 AM EDT 8:21 PM EDT
Nautical Twilight 5:56 AM EDT 8:52 PM EDT
Astronomical Twilight 5:24 AM EDT 9:24 PM EDT
Moon 8:49 AM EDT (8/29) 9:25 PM EDT (8/29)
Length of Visible Light 13h 53m
Length of Day
13h 01m
Waxing Crescent, 5% of the Moon is Illuminated
Aug 29
Waxing Crescent
Sep 3
First Quarter
Sep 10
Full
Sep 18
Last Quarter
Sep 25
New

Hourly Weather History & Observations

Time (EDT) Temp. Heat Index Dew Point Humidity Pressure Visibility Wind Dir Wind Speed Gust Speed Precip Events Conditions
12:08 AM 73.4 °F - 73.4 °F 100% 30.16 in 7.0 mi Calm Calm - N/A   Mostly Cloudy
12:51 AM 73.9 °F - 73.9 °F 100% 30.13 in 7.0 mi South 3.5 mph - N/A   Mostly Cloudy
1:51 AM 75.0 °F - 73.0 °F 94% 30.12 in 7.0 mi South 6.9 mph - N/A   Overcast
2:51 AM 73.9 °F - 73.9 °F 100% 30.10 in 7.0 mi South 3.5 mph - N/A   Overcast
3:51 AM 75.0 °F - 73.9 °F 96% 30.11 in 7.0 mi SSW 3.5 mph - N/A   Overcast
4:51 AM 75.0 °F - 73.9 °F 96% 30.12 in 10.0 mi SSW 6.9 mph - N/A   Overcast
5:51 AM 73.9 °F - 73.0 °F 97% 30.12 in 10.0 mi SSW 6.9 mph - N/A   Mostly Cloudy
6:51 AM 73.9 °F - 73.0 °F 97% 30.14 in 9.0 mi South 3.5 mph - N/A   Mostly Cloudy
7:27 AM 73.4 °F - 73.4 °F 100% 30.18 in 8.0 mi South 4.6 mph - N/A   Mostly Cloudy
7:51 AM 73.9 °F - 73.9 °F 100% 30.15 in 8.0 mi South 4.6 mph - N/A   Mostly Cloudy
8:51 AM 75.9 °F - 75.0 °F 97% 30.17 in 6.0 mi Variable 4.6 mph - N/A   Overcast
9:51 AM 79.0 °F - 75.9 °F 90% 30.18 in 10.0 mi Variable 4.6 mph - N/A   Mostly Cloudy
10:31 AM 80.6 °F 86.2 °F 75.2 °F 84% 30.21 in 10.0 mi Variable 4.6 mph - N/A   Mostly Cloudy
10:51 AM 81.0 °F 87.3 °F 75.9 °F 85% 30.19 in 10.0 mi SSW 5.8 mph - N/A   Mostly Cloudy
11:51 AM 84.9 °F 96.6 °F 78.1 °F 80% 30.17 in 10.0 mi SSW 6.9 mph - N/A   Mostly Cloudy
12:51 PM 87.1 °F 99.8 °F 78.1 °F 74% 30.16 in 9.0 mi SSW 6.9 mph - N/A   Mostly Cloudy
1:51 PM 88.0 °F 100.2 °F 77.0 °F 70% 30.14 in 10.0 mi SSW 6.9 mph - N/A   Mostly Cloudy
2:51 PM 88.0 °F 97.5 °F 75.0 °F 65% 30.12 in 9.0 mi Variable 6.9 mph - N/A   Mostly Cloudy
3:51 PM 89.1 °F 100.2 °F 75.9 °F 65% 30.10 in 10.0 mi SW 5.8 mph - N/A   Mostly Cloudy
4:51 PM 89.1 °F 98.0 °F 73.9 °F 61% 30.10 in 10.0 mi Variable 5.8 mph - N/A   Scattered Clouds
5:51 PM 86.0 °F 95.1 °F 75.0 °F 70% 30.09 in 10.0 mi South 6.9 mph - N/A   Mostly Cloudy
6:51 PM 86.0 °F 95.1 °F 75.0 °F 70% 30.09 in 10.0 mi Variable 4.6 mph - N/A   Mostly Cloudy
7:51 PM 82.0 °F 87.4 °F 73.0 °F 74% 30.10 in 10.0 mi SSW 4.6 mph - N/A   Mostly Cloudy
8:51 PM 79.0 °F - 73.0 °F 82% 30.13 in 10.0 mi South 4.6 mph - N/A   Scattered Clouds
9:51 PM 79.0 °F - 72.0 °F 79% 30.14 in 10.0 mi South 4.6 mph - N/A   Scattered Clouds
10:51 PM 75.9 °F - 72.0 °F 87% 30.15 in 10.0 mi South 5.8 mph - N/A   Scattered Clouds
11:51 PM 77.0 °F - 72.0 °F 84% 30.16 in 10.0 mi South 6.9 mph - N/A   Clear